• Em Portugal
  • Lista de países
  • Para 7 dias
  • Temperatura da água
  • Mapas de satélite
  • Mapa do tempo
  • Widgets de tempo
  • user-avatar
    Iniciar Sessão

    Previsão horária em Skupshinino

    Hoje, 24 Maio, Quinta-feira

    Tempo Temperatura Precipitação Vento Pressão Humidade
    00:00 +14°C° 0 mm 1 m/s 748 mmHg 85%
    01:00 +14°C° 0 mm 2 m/s 747 mmHg 86%
    02:00 +13°C° 0 mm 1 m/s 747 mmHg 87%
    03:00 +13°C° 0 mm 2 m/s 747 mmHg 87%
    04:00 +13°C° 0 mm 2 m/s 747 mmHg 86%
    05:00 +14°C° 0 mm 2 m/s 747 mmHg 85%
    06:00 +16°C° 0 mm 3 m/s 747 mmHg 81%
    07:00 +18°C° 0 mm 3 m/s 747 mmHg 77%
    08:00 +20°C° 0 mm 3 m/s 747 mmHg 72%
    09:00 +21°C° 0 mm 3 m/s 747 mmHg 67%
    10:00 +22°C° 0 mm 4 m/s 747 mmHg 63%
    11:00 +23°C° 0 mm 4 m/s 747 mmHg 59%
    12:00 +25°C° 0,1 mm 4 m/s 746 mmHg 58%
    13:00 +25°C° 0,1 mm 4 m/s 746 mmHg 58%
    14:00 +25°C° 0,1 mm 4 m/s 746 mmHg 57%
    15:00 +23°C° 0,2 mm 4 m/s 746 mmHg 61%
    16:00 +23°C° 0,2 mm 4 m/s 746 mmHg 66%
    17:00 +22°C° 0,2 mm 4 m/s 745 mmHg 70%
    18:00 +21°C° 0,1 mm 3 m/s 745 mmHg 76%
    19:00 +19°C° 0,1 mm 3 m/s 746 mmHg 82%
    20:00 +17°C° 0,1 mm 3 m/s 746 mmHg 87%
    21:00 +16°C° 0 mm 3 m/s 746 mmHg 88%
    22:00 +16°C° 0 mm 3 m/s 746 mmHg 88%
    23:00 +14°C° 0 mm 3 m/s 746 mmHg 89%

    Amanhã, 25 Maio, Sexta-feira

    Tempo Temperatura Precipitação Vento Pressão Humidade
    00:00 +14°C° 0 mm 3 m/s 746 mmHg 89%
    01:00 +13°C° 0 mm 3 m/s 746 mmHg 88%
    02:00 +13°C° 0 mm 4 m/s 746 mmHg 88%
    03:00 +13°C° 0 mm 4 m/s 747 mmHg 89%
    04:00 +13°C° 0 mm 4 m/s 747 mmHg 89%
    05:00 +13°C° 0 mm 5 m/s 747 mmHg 90%
    06:00 +14°C° 0 mm 5 m/s 748 mmHg 86%
    07:00 +15°C° 0 mm 6 m/s 748 mmHg 82%
    08:00 +17°C° 0 mm 6 m/s 748 mmHg 78%
    09:00 +17°C° 0 mm 6 m/s 749 mmHg 73%
    10:00 +18°C° 0 mm 7 m/s 749 mmHg 69%
    11:00 +20°C° 0 mm 7 m/s 749 mmHg 64%
    12:00 +20°C° 0 mm 7 m/s 749 mmHg 61%
    13:00 +20°C° 0 mm 7 m/s 750 mmHg 58%
    14:00 +20°C° 0 mm 7 m/s 750 mmHg 54%
    15:00 +19°C° 0 mm 6 m/s 750 mmHg 57%
    16:00 +17°C° 0 mm 6 m/s 750 mmHg 59%
    17:00 +17°C° 0 mm 5 m/s 750 mmHg 61%
    18:00 +15°C° 0 mm 5 m/s 751 mmHg 64%
    19:00 +14°C° 0 mm 5 m/s 752 mmHg 67%
    20:00 +12°C° 0 mm 4 m/s 752 mmHg 69%
    21:00 +11°C° 0 mm 4 m/s 753 mmHg 70%
    22:00 +11°C° 0 mm 4 m/s 753 mmHg 71%
    23:00 +10°C° 0 mm 4 m/s 753 mmHg 72%

    Depois de amanhã, 26 Maio, Sábado

    Tempo Temperatura Precipitação Vento Pressão Humidade
    00:00 +8°C° 0 mm 4 m/s 754 mmHg 73%
    01:00 +9°C° 0 mm 3 m/s 754 mmHg 74%
    02:00 +8°C° 0 mm 3 m/s 755 mmHg 76%
    03:00 +8°C° 0 mm 3 m/s 755 mmHg 76%
    04:00 +8°C° 0 mm 3 m/s 755 mmHg 76%
    05:00 +8°C° 0 mm 3 m/s 756 mmHg 75%
    06:00 +10°C° 0 mm 3 m/s 756 mmHg 69%
    07:00 +12°C° 0 mm 4 m/s 757 mmHg 62%
    08:00 +13°C° 0 mm 4 m/s 757 mmHg 55%
    09:00 +14°C° 0 mm 4 m/s 757 mmHg 53%
    10:00 +15°C° 0 mm 4 m/s 757 mmHg 51%
    11:00 +16°C° 0 mm 5 m/s 757 mmHg 49%
    12:00 +16°C° 0 mm 5 m/s 757 mmHg 49%
    13:00 +18°C° 0 mm 4 m/s 757 mmHg 50%
    14:00 +18°C° 0 mm 4 m/s 757 mmHg 50%
    15:00 +18°C° 0 mm 4 m/s 756 mmHg 53%
    16:00 +17°C° 0 mm 4 m/s 756 mmHg 56%
    17:00 +17°C° 0 mm 3 m/s 756 mmHg 59%
    18:00 +14°C° 0 mm 3 m/s 756 mmHg 65%
    19:00 +13°C° 0 mm 3 m/s 756 mmHg 71%
    20:00 +12°C° 0 mm 2 m/s 756 mmHg 76%
    21:00 +10°C° 0 mm 2 m/s 756 mmHg 78%
    22:00 +9°C° 0 mm 2 m/s 757 mmHg 79%
    23:00 +8°C° 0 mm 2 m/s 757 mmHg 81%

    27 Maio, Domingo

    Tempo Temperatura Precipitação Vento Pressão Humidade
    00:00 +8°C° 0 mm 2 m/s 757 mmHg 82%
    01:00 +8°C° 0 mm 2 m/s 757 mmHg 84%
    02:00 +7°C° 0 mm 2 m/s 757 mmHg 85%
    03:00 +8°C° 0 mm 1 m/s 757 mmHg 84%
    04:00 +9°C° 0 mm 1 m/s 757 mmHg 83%
    05:00 +9°C° 0 mm 1 m/s 757 mmHg 82%
    06:00 +11°C° 0 mm 1 m/s 757 mmHg 75%
    07:00 +13°C° 0 mm 2 m/s 756 mmHg 68%
    08:00 +15°C° 0 mm 2 m/s 756 mmHg 61%
    09:00 +16°C° 0 mm 2 m/s 756 mmHg 57%
    10:00 +17°C° 0 mm 2 m/s 756 mmHg 53%
    11:00 +18°C° 0 mm 2 m/s 755 mmHg 48%
    12:00 +19°C° 0 mm 2 m/s 755 mmHg 48%
    13:00 +19°C° 0 mm 2 m/s 754 mmHg 47%
    14:00 +20°C° 0 mm 2 m/s 754 mmHg 47%
    15:00 +20°C° 0 mm 2 m/s 754 mmHg 50%
    16:00 +19°C° 0 mm 2 m/s 753 mmHg 52%
    17:00 +19°C° 0 mm 2 m/s 753 mmHg 55%
    18:00 +18°C° 0 mm 1 m/s 753 mmHg 61%
    19:00 +15°C° 0 mm 1 m/s 753 mmHg 67%
    20:00 +13°C° 0 mm 1 m/s 753 mmHg 74%
    21:00 +13°C° 0 mm 1 m/s 753 mmHg 75%
    22:00 +12°C° 0 mm 1 m/s 753 mmHg 77%
    23:00 +10°C° 0 mm 2 m/s 753 mmHg 78%

    28 Maio, Segunda-feira

    Tempo Temperatura Precipitação Vento Pressão Humidade
    00:00 +10°C° 0 mm 2 m/s 753 mmHg 80%
    01:00 +10°C° 0 mm 2 m/s 753 mmHg 82%
    02:00 +9°C° 0 mm 2 m/s 753 mmHg 83%
    03:00 +10°C° 0 mm 2 m/s 753 mmHg 83%
    04:00 +10°C° 0 mm 2 m/s 753 mmHg 83%
    05:00 +12°C° 0 mm 2 m/s 753 mmHg 83%
    06:00 +14°C° 0 mm 2 m/s 753 mmHg 79%
    07:00 +16°C° 0 mm 2 m/s 753 mmHg 74%
    08:00 +18°C° 0 mm 2 m/s 753 mmHg 69%
    09:00 +19°C° 0 mm 3 m/s 753 mmHg 65%
    10:00 +21°C° 0 mm 4 m/s 753 mmHg 61%
    11:00 +22°C° 0 mm 4 m/s 753 mmHg 57%
    12:00 +22°C° 0 mm 4 m/s 754 mmHg 55%
    13:00 +22°C° 0 mm 5 m/s 754 mmHg 53%
    14:00 +22°C° 0 mm 5 m/s 754 mmHg 51%
    15:00 +21°C° 0 mm 4 m/s 754 mmHg 54%
    16:00 +20°C° 0 mm 4 m/s 754 mmHg 57%
    17:00 +20°C° 0 mm 4 m/s 754 mmHg 60%
    18:00 +18°C° 0 mm 3 m/s 754 mmHg 64%
    19:00 +14°C° 0 mm 3 m/s 755 mmHg 68%
    20:00 +13°C° 0 mm 2 m/s 755 mmHg 72%
    21:00 +12°C° 0 mm 2 m/s 755 mmHg 72%
    22:00 +10°C° 0 mm 2 m/s 756 mmHg 73%
    23:00 +9°C° 0 mm 2 m/s 756 mmHg 73%

    29 Maio, Terça-feira

    Tempo Temperatura Precipitação Vento Pressão Humidade
    00:00 +9°C° 0 mm 2 m/s 756 mmHg 73%
    01:00 +8°C° 0 mm 2 m/s 757 mmHg 73%
    02:00 +9°C° 0 mm 1 m/s 757 mmHg 74%
    03:00 +9°C° 0 mm 1 m/s 757 mmHg 74%
    04:00 +10°C° 0 mm 1 m/s 757 mmHg 74%
    05:00 +10°C° 0 mm 1 m/s 758 mmHg 74%
    06:00 +13°C° 0 mm 1 m/s 758 mmHg 68%
    07:00 +15°C° 0 mm 1 m/s 758 mmHg 61%
    08:00 +18°C° 0 mm 1 m/s 758 mmHg 55%
    09:00 +19°C° 0 mm 1 m/s 758 mmHg 52%
    10:00 +20°C° 0 mm 1 m/s 757 mmHg 49%
    11:00 +21°C° 0 mm 1 m/s 757 mmHg 46%
    12:00 +22°C° 0 mm 1 m/s 757 mmHg 45%
    13:00 +23°C° 0 mm 1 m/s 756 mmHg 45%
    14:00 +23°C° 0 mm 1 m/s 756 mmHg 45%
    15:00 +23°C° 0 mm 1 m/s 756 mmHg 48%
    16:00 +23°C° 0 mm 1 m/s 755 mmHg 50%
    17:00 +23°C° 0 mm 1 m/s 755 mmHg 52%
    18:00 +21°C° 0 mm 1 m/s 755 mmHg 59%
    19:00 +18°C° 0 mm 1 m/s 754 mmHg 65%
    20:00 +15°C° 0 mm 1 m/s 754 mmHg 72%
    21:00 +15°C° 0 mm 1 m/s 754 mmHg 74%
    22:00 +14°C° 0 mm 1 m/s 754 mmHg 76%
    23:00 +13°C° 0 mm 2 m/s 754 mmHg 78%
    Mostrar mais